This demonstration page uses our WeatherBlox Daily Observations layout. Learn more.

Left ArrowRight Arrow

39.92423, -83.80882

Hourly Observations for January 3, 2018

Temp ( °F °C ) Dew Point ( °F °C ) Humidity (%) Winds ( mph kmh ) Pressure ( in mb ) Visibility ( mi km ) Precip ( " mm )
12:56 am 00:56 Clear 2 -16.7 -3 -19.4 80 80 SSW 5 7 30.33 1027 10 16 N/A
1:56 am 01:56 Clear 1 -17.2 -5 -20.6 75 75 SW 7 11 30.32 1027 10 16 N/A
2:56 am 02:56 Clear N/A -5 -20.6 79 79 SW 7 11 30.32 1027 10 16 N/A
3:56 am 03:56 Clear N/A -7 -21.7 72 72 S 5 7 30.29 1026 10 16 N/A
4:56 am 04:56 Clear 1 -17.2 -4 -20 79 79 SSW 8 13 30.26 1025 10 16 N/A
5:56 am 05:56 Clear 3 -16.1 -4 -20 72 72 SSW 9 15 30.26 1025 10 16 N/A
6:56 am 06:56 Clear 4 -15.6 -3 -19.4 73 73 SW 9 15 30.25 1024 10 16 N/A
7:56 am 07:56 Clear 5 -15 -3 -19.4 69 69 SSW 12 19 30.23 1024 10 16 N/A
8:56 am 08:56 Sunny 6 -14.4 -2 -18.9 69 69 SW 9 15 30.22 1024 10 16 N/A
9:56 am 09:56 Sunny 11 -11.7 1 -17.2 64 64 SW 12 19 30.20 1023 10 16 N/A
10:56 am 10:56 Partly Cloudy 17 -8.3 3 -16.1 54 54 SW 14 22 30.18 1022 10 16 N/A
11:56 am 11:56 Partly Cloudy 21 -6.1 4 -15.6 47 47 SW 9 15 30.13 1020 10 16 N/A
12:56 pm 12:56 Cloudy 24 -4.4 6 -14.4 46 46 SW 8 13 30.09 1019 10 16 N/A
1:56 pm 13:56 Cloudy 22 -5.6 7 -13.9 52 52 W 13 20 30.07 1018 10 16 N/A
2:56 pm 14:56 Cloudy 21 -6.1 7 -13.9 54 54 W 13 20 30.06 1018 10 16 N/A
4:56 pm 16:56 Cloudy with Light Snow 19 -7.2 11 -11.7 71 71 W 13 20 30.11 1020 8 13 N/A
5:56 pm 17:56 Cloudy with Light Snow 17 -8.3 11 -11.7 77 77 W 12 19 30.13 1020 9 14 N/A
6:56 pm 18:56 Cloudy with Light Snow 17 -8.3 11 -11.7 77 77 WSW 8 13 30.14 1021 9 14 N/A
7:56 pm 19:56 Cloudy with Light Snow 16 -8.9 11 -11.7 80 80 W 8 13 30.13 1020 9 14 N/A
8:46 pm 20:46 Cloudy with Light Snow 16 -9 10 -12 79 79 W 9 15 30.15 1021 3 4 N/A
8:56 pm 20:56 Cloudy with Light Snow 16 -8.9 11 -11.7 80 80 W 10 17 30.12 1020 6 10 N/A
9:03 pm 21:03 Cloudy with Light Snow 16 -9 10 -12 79 79 W 12 19 30.15 1021 9 14 N/A
9:56 pm 21:56 Cloudy 15 -9.4 10 -12.2 80 80 WNW 13 20 30.12 1020 10 16 N/A
10:56 pm 22:56 Cloudy 14 -10 8 -13.3 77 77 WNW 12 19 30.11 1020 10 16 N/A
11:56 pm 23:56 Cloudy with Light Snow 12 -11.1 7 -13.9 80 80 WNW 8 13 30.12 1020 10 16 N/A

Powered by AerisWeather